New River MCAS, NC

11:56 AM EDT on August 19, 2017 (GMT -0400)
New River Marine Corps Air Station

Weather History for KNCA - January, 2014

Change the Weather History Date:

Thursday, January 2, 2014

  Actual Average Record
Temperature  
Mean Temperature 48 °F -  
Max Temperature 52 °F 55 °F 75 °F (2000)
Min Temperature 45 °F 34 °F 24 °F (2001)
Degree Days  
Heating Degree Days 16    
Moisture  
Dew Point 48 °F    
Average Humidity 94    
Maximum Humidity 100    
Minimum Humidity 80    
Precipitation  
Precipitation 0.57 in - - ()
Sea Level Pressure  
Sea Level Pressure 29.77 in    
Wind  
Wind Speed 4 mph (NW)    
Max Wind Speed 18 mph    
Max Gust Speed 32 mph    
Visibility 5 miles    
Events Rain    
Averages and records for this station are not official NWS values.
T = Trace of Precipitation, MM = Missing Value Source: NWS Daily Summary

Daily Weather History Graph

Daily Weather History Graph

Search for Another Location

Airport or City:

Trip Planner

Search our weather history database for the weather conditions in past years. The results will help you decide how hot, cold, wet, or windy it might be!

Date:

Astronomy

Jan. 02, 2014 Rise Set
Actual Time 7:17 AM EST 5:10 PM EST
Civil Twilight 6:49 AM EST 5:38 PM EST
Nautical Twilight 6:17 AM EST 6:10 PM EST
Astronomical Twilight 5:47 AM EST 6:40 PM EST
Moon 8:01 AM EST (1/2) 6:59 PM EST (1/2)
Length of Visible Light 10h 49m
Length of Day
9h 53m
New Moon, 2% of the Moon is Illuminated
Jan 2
New Moon
Jan 7
First Quarter
Jan 15
Full
Jan 24
Last Quarter
Jan 30
New

Hourly Weather History & Observations

Time (EST) Temp. Windchill Dew Point Humidity Pressure Visibility Wind Dir Wind Speed Gust Speed Precip Events Conditions
12:56 AM 46.9 °F - 41.0 °F 80% 30.13 in 10.0 mi North 6.9 mph - 0.00 in Rain Light Rain
1:27 AM 46.0 °F 44.8 °F 41.0 °F 83% 30.11 in 10.0 mi North 3.5 mph - 0.00 in   Overcast
1:56 AM 46.9 °F - 41.0 °F 80% 30.12 in 10.0 mi Calm Calm - 0.00 in Rain Light Rain
2:56 AM 46.9 °F - 42.1 °F 83% 30.10 in 10.0 mi NNW 3.5 mph - 0.00 in Rain Light Rain
3:16 AM 46.9 °F - 42.1 °F 83% 30.08 in 10.0 mi North 4.6 mph - 0.01 in Rain Light Rain
3:56 AM 46.0 °F 44.8 °F 42.1 °F 86% 30.09 in 7.0 mi North 3.5 mph - 0.03 in Rain Light Rain
4:56 AM 45.0 °F - 43.0 °F 93% 30.06 in 7.0 mi Calm Calm - 0.02 in Rain Light Rain
5:56 AM 45.0 °F - 44.1 °F 97% 30.02 in 10.0 mi Calm Calm - 0.00 in   Mostly Cloudy
6:56 AM 46.0 °F 43.9 °F 44.1 °F 93% 30.03 in 7.0 mi WNW 4.6 mph - 0.01 in Rain Light Rain
7:56 AM 46.0 °F - 45.0 °F 96% 30.01 in 5.0 mi Calm Calm - 0.05 in Rain Light Rain
8:56 AM 46.9 °F - 46.0 °F 97% 29.97 in 5.0 mi ESE 4.6 mph - 0.02 in Rain Light Rain
9:41 AM 48.0 °F - 46.9 °F 96% 29.96 in 6.0 mi Calm Calm - 0.01 in Rain Light Rain
9:56 AM 48.0 °F - 46.9 °F 96% 29.97 in 7.0 mi Calm Calm - 0.01 in Rain Light Rain
10:22 AM 48.9 °F - 46.9 °F 93% 29.94 in 5.0 mi East 3.5 mph - 0.00 in Rain Light Rain
10:56 AM 48.9 °F - 48.0 °F 97% 29.92 in 6.0 mi ENE 3.5 mph - 0.00 in Rain Light Rain
11:56 AM 50.0 °F - 48.0 °F 93% 29.88 in 9.0 mi Calm Calm - 0.01 in Rain Light Rain
12:17 PM 50.0 °F - 48.0 °F 93% 29.85 in 9.0 mi ENE 3.5 mph - 0.01 in Rain Light Rain
12:25 PM 50.0 °F - 48.0 °F 93% 29.85 in 7.0 mi Calm Calm - 0.01 in Rain Light Rain
12:56 PM 50.0 °F - 48.0 °F 93% 29.84 in 7.0 mi Calm Calm - 0.02 in Rain Light Rain
1:47 PM 50.0 °F - 48.0 °F 93% 29.80 in 8.0 mi Calm Calm - 0.01 in Rain Light Rain
1:56 PM 50.0 °F - 48.0 °F 93% 29.80 in 7.0 mi Calm Calm - 0.01 in Rain Light Rain
2:28 PM 50.0 °F - 48.0 °F 93% 29.76 in 4.0 mi ESE 3.5 mph - 0.03 in Rain Light Rain
2:39 PM 50.0 °F - 48.0 °F 93% 29.75 in 5.0 mi SE 3.5 mph - 0.05 in Rain Light Rain
3:29 PM 50.0 °F - 48.9 °F 96% 29.74 in 3.0 mi SSE 3.5 mph - 0.04 in Rain Light Rain
3:34 PM 50.0 °F - 48.9 °F 96% 29.74 in 2.5 mi Calm Calm - 0.06 in Rain Rain
3:56 PM 50.0 °F - 48.9 °F 96% 29.73 in 4.0 mi Calm Calm - 0.10 in Rain Light Rain
4:45 PM 51.1 °F - 50.0 °F 96% 29.69 in 3.0 mi Calm Calm - 0.05 in Rain Light Rain
4:56 PM 51.1 °F - 50.0 °F 96% 29.70 in 3.0 mi Calm Calm - 0.06 in Rain Light Rain
5:15 PM 51.1 °F - 50.0 °F 96% 29.67 in 5.0 mi Calm Calm - 0.02 in Rain Light Rain
5:29 PM 51.1 °F - 50.0 °F 96% 29.66 in 10.0 mi Calm Calm - 0.02 in Rain Light Rain
5:56 PM 51.1 °F - 50.0 °F 96% 29.67 in 7.0 mi Calm Calm - 0.02 in   Overcast
6:14 PM 51.1 °F - 50.0 °F 96% 29.64 in 3.0 mi Calm Calm - 0.01 in Rain Light Rain
6:19 PM 51.1 °F - 50.0 °F 96% 29.63 in 3.0 mi Calm Calm - 0.01 in Rain Light Rain
6:40 PM 51.1 °F - 50.0 °F 96% 29.63 in 2.5 mi Calm Calm - 0.01 in   Overcast
6:49 PM 51.1 °F - 50.0 °F 96% 29.62 in 4.0 mi Calm Calm - 0.01 in   Overcast
6:56 PM 51.1 °F - 50.0 °F 96% 29.62 in 3.0 mi Calm Calm - 0.01 in   Overcast
7:02 PM 51.1 °F - 50.0 °F 96% 29.60 in 2.5 mi Calm Calm - N/A   Overcast
7:16 PM 51.1 °F - 50.0 °F 96% 29.60 in 1.2 mi Calm Calm - N/A   Overcast
7:26 PM 51.1 °F - 50.0 °F 96% 29.59 in 1.0 mi WNW 5.8 mph - N/A   Mist
7:33 PM 51.1 °F - 50.0 °F 96% 29.58 in 0.8 mi Calm Calm - 0.00 in Rain Light Rain
7:56 PM 51.1 °F - 51.1 °F 100% 29.58 in 1.2 mi Calm Calm - 0.01 in Rain Light Rain
8:01 PM 51.1 °F - 51.1 °F 100% 29.57 in 3.0 mi Calm Calm - 0.00 in Rain Light Rain
8:13 PM 51.1 °F - 50.0 °F 96% 29.57 in 2.5 mi WNW 8.1 mph - 0.00 in Rain Light Rain
8:26 PM 51.1 °F - 50.0 °F 96% 29.56 in 2.0 mi Calm Calm - 0.03 in Rain Rain
8:35 PM 51.1 °F - 50.0 °F 96% 29.56 in 3.0 mi WNW 12.7 mph - 0.04 in Rain Light Rain
8:49 PM 51.1 °F - 50.0 °F 96% 29.59 in 2.5 mi WNW 16.1 mph 21.9 mph 0.08 in Rain Light Rain
8:54 PM 51.8 °F - 50.0 °F 94% 29.59 in 3.0 mi WNW 15.0 mph - 0.09 in Rain Light Rain
8:56 PM 51.1 °F - 50.0 °F 96% 29.60 in 3.0 mi WNW 15.0 mph - 0.09 in Rain Light Rain
9:09 PM 52.0 °F - 50.0 °F 93% 29.59 in 3.0 mi West 15.0 mph - 0.01 in Rain Light Rain
9:25 PM 52.0 °F - 51.1 °F 97% 29.59 in 4.0 mi West 11.5 mph - 0.01 in Rain Light Rain
9:56 PM 52.0 °F - 51.1 °F 97% 29.60 in 4.0 mi West 12.7 mph - 0.03 in Rain Light Rain
10:56 PM 52.0 °F - 50.0 °F 93% 29.58 in 10.0 mi West 11.5 mph 17.3 mph 0.06 in   Overcast
11:06 PM 52.0 °F - 50.0 °F 93% 29.57 in 10.0 mi West 16.1 mph 23.0 mph N/A   Overcast
11:56 PM 51.1 °F - 48.0 °F 89% 29.61 in 5.0 mi WNW 18.4 mph 32.2 mph 0.01 in Rain Light Rain